Wetbulb
61.12 64.57 70.21 70.58 70.77 71.80 72.41 72.36 72.25 72.24 72.34 72.09 71.91 71.91 72.33 72.24 71.79 71.61 72.07 72.41 72.43 72.45 72.50 72.49 72.89 72.86 72.60 72.30 72.26 72.42 72.44 72.50 72.61 72.47 72.37 72.19 70.30 72.87 73.92 74.19 73.69 73.20 74.19
62.29 64.95 68.62 69.36 69.92 70.45 71.20 72.07 71.89 71.86 71.93 71.82 71.62 71.51 71.52 71.08 70.78 70.76 70.30 70.83 71.44 71.99 72.31 72.48 72.05 71.67 71.73 72.13 71.96 71.94 72.07 72.24 72.72 72.57 72.29 71.76 71.75 70.94 74.57 74.05 73.74 73.54 73.70
62.41 63.93 65.40 68.31 68.59 68.89 69.44 70.45 71.00 70.92 71.22 71.50 71.06 70.23 69.80 68.86 69.00 69.19 68.69 68.42 68.91 69.66 70.05 70.73 70.01 69.62 69.71 70.45 71.31 71.73 71.52 71.52 71.91 71.55 70.49 68.98 68.00 73.68 73.95 74.02 74.03 73.76 73.65
60.97 61.49 62.56 66.84 67.42 68.35 68.03 68.32 68.85 68.82 68.84 69.30 69.28 68.36 67.35 66.82 67.48 67.47 67.14 66.66 66.96 67.66 68.44 68.46 67.73 66.96 67.13 68.18 69.38 70.14 70.67 71.03 71.25 70.33 67.06 67.66 67.97 71.81 72.66 73.33 73.65 73.63 73.33
58.28 60.05 62.64 65.69 66.26 66.54 66.59 66.85 67.62 67.35 67.07 67.70 66.76 65.91 65.97 65.48 64.91 64.34 63.71 63.02 63.10 63.68 65.26 66.07 65.20 64.63 64.52 65.21 66.49 67.47 67.85 67.82 68.17 69.22 66.74 65.39 66.89 71.40 71.87 71.59 72.10 72.80 72.32
56.95 59.00 62.87 64.27 64.62 64.33 64.30 64.93 65.62 65.28 66.24 64.09 63.19 62.59 62.76 62.02 61.46 60.59 60.08 59.82 60.00 60.16 61.08 61.47 60.70 60.24 60.37 61.25 62.63 64.07 64.65 64.72 65.51 65.45 66.64 66.56 66.01 69.84 71.32 71.58 72.07 71.50 71.19
54.49 55.94 58.64 63.05 62.73 62.66 62.45 62.30 62.14 62.36 63.14 61.34 60.34 59.43 59.07 58.48 58.36 58.44 58.53 58.57 58.51 58.64 58.93 59.06 58.86 58.70 58.59 58.70 58.94 59.22 59.62 59.64 57.97 59.97 63.53 65.13 65.24 70.18 71.38 71.77 71.82 71.75 71.71
53.30 54.05 55.59 60.07 61.59 61.25 61.10 60.75 60.27 60.12 59.87 58.95 58.17 57.38 57.05 56.68 56.43 56.51 56.73 56.99 56.96 57.17 57.47 57.92 57.63 57.65 57.42 57.35 57.34 56.40 55.82 56.55 53.76 51.93 55.55 61.69 65.52 68.95 70.17 71.67 71.42 70.68 70.31
52.73 51.81 51.50 52.71 56.26 58.86 59.66 59.50 58.94 58.33 57.37 56.75 56.15 55.13 54.35 54.08 53.99 53.04 53.82 55.29 55.50 56.18 56.43 56.54 56.50 56.21 56.26 56.52 56.63 56.61 57.84 58.27 52.09 51.31 54.17 59.66 66.65 67.96 69.98 70.98 70.82 70.25 69.63
49.10 49.83 49.13 49.25 49.74 49.02 50.50 57.09 57.22 56.28 54.89 53.72 53.21 52.76 52.97 52.32 52.14 51.11 50.94 53.15 54.03 54.88 55.21 55.22 55.26 54.96 53.60 53.87 54.32 54.29 55.57 52.28 46.79 48.01 50.41 53.46 60.86 62.92 66.02 68.16 69.80 70.08 69.19
46.03 46.25 46.60 46.95 46.84 46.25 47.28 51.28 54.40 54.12 52.17 51.77 50.76 51.15 50.43 44.02 44.75 46.49 50.56 51.55 52.23 52.66 52.69 52.73 52.74 51.77 51.22 50.86 51.67 52.63 51.58 46.61 46.50 47.16 48.04 56.27 58.25 59.81 61.44 63.27 65.40 67.24 68.71
42.14 43.41 45.20 44.33 44.66 45.12 47.75 46.50 45.12 46.63 45.25 45.02 45.02 43.84 44.43 42.77 44.06 46.36 49.01 50.05 49.59 49.08 49.55 49.94 49.97 49.06 46.88 43.84 43.85 47.66 45.04 45.39 45.53 45.87 47.21 53.75 55.54 57.41 58.74 59.66 60.44 61.98 63.69
42.14 42.36 43.91 44.15 43.00 43.46 42.84 43.29 42.41 42.45 41.90 42.59 42.16 42.62 42.87 42.49 41.63 41.62 41.04 41.19 41.05 43.91 40.32 41.67 41.40 41.76 41.22 41.58 42.48 42.38 43.28 43.48 43.32 44.70 47.19 52.29 53.78 55.50 57.16 58.07 58.95 59.83 60.50
40.88 43.06 42.36 42.85 42.71 41.52 41.60 42.86 41.61 41.60 41.17 41.07 40.95 41.82 41.02 39.77 38.89 39.05 38.86 38.74 38.33 38.22 37.12 37.51 38.32 39.39 39.64 40.67 41.44 41.46 41.47 41.33 41.74 43.01 44.72 50.22 51.54 53.84 55.98 57.45 58.23 58.92 59.62
41.73 42.01 41.82 42.08 41.90 41.91 41.68 41.48 41.03 40.68 40.71 40.47 39.12 39.89 39.99 38.57 37.28 37.90 37.45 37.27 36.53 36.57 36.25 36.10 36.79 37.49 37.87 39.41 40.14 40.20 39.97 40.23 40.60 41.78 42.22 48.01 49.69 51.55 53.60 55.69 57.05 58.01 58.78
43.62 42.05 41.65 42.12 41.73 42.13 40.61 40.12 40.49 39.88 40.02 39.67 37.66 37.60 38.79 37.59 36.12 36.69 36.31 36.26 35.58 35.49 35.51 35.51 35.59 35.65 36.12 37.40 38.39 38.98 38.97 39.24 39.94 40.56 41.52 41.94 48.17 49.55 51.31 53.30 55.27 56.60 57.48
44.22 42.57 41.16 41.30 41.13 41.79 40.46 40.01 40.36 39.31 39.68 38.17 37.03 36.76 37.00 36.83 35.60 35.35 35.04 34.64 34.37 34.92 34.80 34.86 34.83 35.23 34.94 36.32 35.78 37.32 37.81 38.48 39.20 39.24 40.10 40.77 42.27 47.42 49.92 51.51 52.74 53.91 54.84
42.53 41.22 41.29 42.86 41.30 40.82 40.17 39.20 39.85 38.40 37.49 37.30 36.35 35.68 36.11 36.31 35.49 34.09 33.94 33.69 33.99 33.99 33.65 33.40 33.25 33.40 33.15 33.56 33.71 35.03 35.69 36.82 37.09 37.49 38.45 39.27 40.34 42.65 46.22 50.07 51.29 52.24 53.25
43.84 41.72 40.22 40.91 39.92 39.83 38.20 38.33 37.55 36.61 36.22 35.91 35.18 34.48 34.95 35.40 35.23 33.67 33.28 33.09 33.66 33.09 32.75 33.19 32.64 32.08 31.54 32.24 33.67 35.02 35.21 35.22 35.53 37.99 37.77 39.37 40.00 41.68 42.10 46.42 50.49 51.53 52.33
43.60 41.61 40.41 40.04 39.25 38.82 38.51 36.69 35.69 34.87 34.13 33.68 33.33 33.80 34.25 34.13 34.34 32.93 32.44 32.89 33.14 32.27 32.07 32.06 31.17 31.82 31.63 31.74 34.34 34.64 34.07 35.19 34.48 34.11 35.79 39.05 39.70 40.98 41.70 42.20 43.04 44.99 50.93
40.89 39.58 38.78 38.45 38.80 39.14 37.91 35.73 34.66 34.15 32.30 31.78 32.38 33.48 33.31 33.20 33.53 32.32 32.14 32.01 32.13 31.50 31.51 32.07 31.69 31.15 30.87 31.55 30.55 30.73 31.56 33.78 33.48 34.33 34.34 34.36 35.82 38.49 40.28 41.67 42.05 42.36 43.33
39.08 39.16 38.57 38.73 38.52 38.93 38.68 37.79 34.00 33.99 31.41 32.03 32.58 32.50 33.03 32.94 32.93 32.45 31.82 31.05 31.02 30.33 30.88 30.90 30.88 29.73 30.21 30.62 28.44 28.00 26.66 30.35 32.89 34.89 34.25 35.41 34.79 36.54 37.52 38.90 38.81 40.17 40.33
38.23 37.49 38.16 38.37 38.48 38.55 37.74 35.62 32.47 32.41 31.23 30.34 31.12 31.38 31.97 32.48 32.42 31.77 30.88 30.42 30.03 30.02 29.31 29.64 29.27 29.27 27.98 28.63 29.91 28.57 25.63 24.80 29.17 31.61 33.32 33.34 33.26 34.49 35.35 36.41 39.02 38.74 39.30
38.46 38.33 38.71 38.01 37.96 37.74 36.26 35.84 33.15 34.21 32.00 33.10 33.44 32.37 31.50 32.03 31.36 31.45 30.94 30.20 29.69 29.56 29.05 29.08 30.50 28.79 28.24 26.87 28.39 31.48 29.64 28.43 25.52 24.55 30.05 31.97 33.47 33.48 33.86 34.57 35.83 37.57 37.78
37.99 37.85 37.80 37.35 37.30 37.12 36.46 36.30 33.90 33.22 33.65 30.39 30.77 30.46 30.47 29.80 30.53 30.16 30.30 29.39 28.59 28.47 28.91 29.09 28.42 27.98 28.04 27.31 27.14 27.19 27.08 27.37 28.18 25.91 23.68 25.55 29.99 31.52 32.49 33.44 34.37 35.23 36.27
36.73 36.97 36.71 36.15 36.37 36.81 36.01 35.36 34.09 32.51 29.89 29.81 30.45 30.10 29.76 29.48 28.88 28.80 29.28 27.84 27.71 27.69 27.88 28.03 27.88 27.35 26.74 26.64 26.83 26.79 26.72 25.52 25.19 24.38 23.95 24.76 24.98 27.45 30.17 31.62 32.11 33.03 34.25
MSLP
1019.36 1019.08 1018.70 1018.41 1018.40 1018.41 1018.44 1018.53 1018.59 1018.62 1018.77 1018.91 1018.96 1019.09 1019.21 1019.32 1019.25 1019.30 1019.24 1019.23 1019.07 1019.02 1018.96 1018.99 1018.95 1019.02 1019.03 1019.06 1019.01 1018.93 1018.87 1018.79 1018.81 1018.86 1018.73 1018.56 1018.37 1018.26 1018.27 1018.25 1018.40 1018.31 1018.29
1018.81 1018.84 1018.68 1018.55 1018.56 1018.47 1018.43 1018.55 1018.61 1018.64 1018.71 1018.85 1019.03 1019.15 1019.14 1019.32 1019.47 1019.48 1019.54 1019.47 1019.34 1019.23 1019.15 1019.15 1019.23 1019.21 1019.24 1019.15 1019.16 1019.10 1019.03 1019.03 1018.95 1018.88 1018.77 1018.60 1018.36 1018.17 1018.09 1018.22 1018.40 1018.31 1018.22
1018.59 1018.74 1018.72 1018.59 1018.60 1018.49 1018.43 1018.39 1018.45 1018.53 1018.61 1018.68 1018.84 1019.27 1019.39 1019.50 1019.57 1019.62 1019.74 1019.83 1019.85 1019.64 1019.44 1019.52 1019.63 1019.55 1019.56 1019.30 1019.22 1019.12 1019.10 1019.13 1019.09 1019.01 1018.87 1018.70 1018.42 1018.07 1018.15 1018.28 1018.26 1018.26 1018.24
1018.51 1018.74 1018.76 1018.58 1018.60 1018.71 1018.80 1018.77 1018.75 1018.77 1018.99 1019.00 1019.18 1019.42 1019.69 1019.91 1019.97 1020.15 1020.20 1020.23 1020.25 1020.10 1020.01 1019.96 1019.94 1019.94 1019.87 1019.56 1019.42 1019.38 1019.34 1019.23 1019.22 1019.03 1018.91 1018.71 1018.40 1018.18 1018.28 1018.36 1018.38 1018.34 1018.34
1018.32 1018.56 1018.65 1018.70 1018.75 1018.85 1018.93 1019.08 1019.11 1019.22 1019.39 1019.43 1019.65 1019.84 1019.96 1020.02 1020.13 1020.25 1020.37 1020.50 1020.43 1020.27 1020.20 1020.15 1020.30 1020.32 1020.14 1020.05 1019.82 1019.69 1019.58 1019.50 1019.43 1019.07 1018.80 1018.62 1018.55 1018.21 1018.18 1018.32 1018.45 1018.49 1018.51
1018.21 1018.40 1018.53 1018.55 1018.68 1018.88 1019.02 1019.14 1019.26 1019.43 1019.48 1019.87 1020.09 1020.14 1020.18 1020.35 1020.42 1020.54 1020.59 1020.59 1020.51 1020.42 1020.34 1020.35 1020.46 1020.40 1020.29 1020.21 1020.22 1019.96 1019.89 1019.82 1019.58 1019.33 1019.05 1018.72 1018.40 1018.17 1018.05 1018.17 1018.34 1018.42 1018.46
1018.46 1018.58 1018.58 1018.55 1018.69 1018.91 1019.15 1019.31 1019.41 1019.59 1019.70 1020.06 1020.39 1020.47 1020.62 1020.74 1020.78 1020.83 1020.78 1020.77 1020.75 1020.75 1020.80 1020.83 1020.83 1020.68 1020.60 1020.51 1020.35 1020.15 1020.10 1020.06 1019.88 1019.55 1019.25 1018.87 1018.52 1018.15 1017.87 1017.87 1017.96 1018.15 1018.31
1018.15 1018.48 1018.60 1018.61 1018.68 1018.86 1019.10 1019.31 1019.51 1019.69 1019.91 1020.22 1020.42 1020.71 1020.88 1020.92 1021.03 1021.15 1021.14 1021.09 1021.13 1021.18 1021.11 1021.03 1020.98 1020.87 1020.75 1020.57 1020.48 1020.37 1020.19 1020.12 1019.99 1019.80 1019.38 1018.99 1018.67 1018.21 1017.78 1017.73 1017.83 1017.89 1017.98
1017.91 1018.34 1018.63 1018.75 1018.82 1019.03 1019.18 1019.24 1019.35 1019.60 1019.95 1020.18 1020.43 1020.68 1020.81 1021.01 1021.26 1021.40 1021.39 1021.25 1021.26 1021.22 1021.05 1020.96 1020.99 1020.90 1020.75 1020.63 1020.45 1020.38 1020.31 1020.22 1020.22 1019.87 1019.38 1019.04 1018.69 1018.31 1017.76 1017.55 1017.67 1017.73 1017.78
1017.71 1018.05 1018.50 1018.74 1018.98 1019.28 1019.33 1019.29 1019.41 1019.70 1019.97 1020.23 1020.47 1020.69 1020.77 1020.88 1021.17 1021.35 1021.45 1021.26 1021.23 1021.16 1020.92 1021.02 1020.81 1020.90 1021.03 1020.90 1020.77 1020.68 1020.51 1020.43 1020.35 1020.11 1019.65 1019.21 1018.88 1018.45 1018.04 1017.81 1017.75 1017.70 1017.69
1017.48 1017.65 1018.04 1018.43 1018.83 1019.18 1019.32 1019.36 1019.54 1019.87 1020.18 1020.42 1020.55 1020.74 1020.99 1021.23 1021.44 1021.56 1021.43 1021.43 1021.48 1021.36 1021.29 1021.16 1021.10 1021.28 1021.19 1021.13 1020.88 1020.79 1020.75 1020.75 1020.50 1020.28 1019.92 1019.52 1019.10 1018.57 1018.29 1018.05 1017.97 1017.78 1017.66
1017.06 1017.20 1017.48 1017.83 1018.28 1018.72 1018.83 1019.28 1019.61 1019.88 1020.17 1020.44 1020.67 1020.82 1021.00 1021.19 1021.34 1021.46 1021.58 1021.65 1021.71 1021.67 1021.54 1021.58 1021.58 1021.64 1021.47 1021.41 1021.15 1021.01 1020.92 1020.72 1020.50 1020.40 1020.01 1019.58 1019.17 1018.85 1018.51 1018.35 1018.19 1017.97 1017.67
1016.14 1016.67 1016.89 1017.23 1017.68 1018.10 1018.48 1019.19 1019.61 1019.86 1020.18 1020.35 1020.41 1020.61 1020.77 1021.00 1021.28 1021.64 1021.84 1021.92 1021.98 1021.99 1021.94 1021.88 1021.82 1021.77 1021.64 1021.60 1021.39 1021.24 1020.98 1020.94 1020.92 1020.59 1020.13 1019.73 1019.48 1019.13 1018.80 1018.52 1018.19 1017.98 1017.66
1015.50 1015.75 1016.25 1016.71 1017.23 1017.70 1018.22 1018.74 1019.26 1019.66 1020.02 1020.22 1020.24 1020.34 1020.66 1021.06 1021.42 1021.82 1022.14 1022.14 1022.10 1022.06 1021.95 1021.86 1021.79 1021.78 1021.65 1021.46 1021.36 1021.33 1021.18 1021.12 1020.90 1020.38 1020.02 1019.88 1019.67 1019.16 1018.71 1018.38 1018.09 1017.82 1017.51
1014.73 1015.06 1015.50 1016.07 1016.60 1017.11 1017.75 1018.22 1018.68 1019.13 1019.53 1019.83 1019.98 1020.12 1020.38 1020.90 1021.41 1021.70 1021.96 1022.05 1022.11 1022.04 1021.98 1021.98 1022.09 1021.95 1021.83 1021.62 1021.50 1021.30 1021.01 1020.87 1020.56 1020.23 1019.95 1019.47 1019.25 1019.08 1018.77 1018.38 1018.15 1017.82 1017.44
1013.65 1014.15 1014.81 1015.48 1015.98 1016.65 1017.31 1017.78 1018.19 1018.62 1018.99 1019.45 1019.74 1019.99 1020.26 1020.77 1021.19 1021.59 1021.96 1022.13 1022.27 1022.13 1022.08 1022.14 1022.17 1022.17 1022.18 1022.18 1021.69 1021.55 1021.20 1020.84 1020.51 1020.12 1019.68 1019.37 1019.08 1018.87 1018.76 1018.49 1017.99 1017.66 1017.41
1012.61 1013.37 1014.02 1014.81 1015.58 1016.21 1016.79 1017.31 1017.83 1018.25 1018.72 1019.27 1019.67 1019.99 1020.26 1020.56 1020.96 1021.41 1021.75 1022.13 1022.29 1022.22 1022.13 1022.19 1022.24 1022.22 1022.27 1021.96 1021.99 1021.75 1021.25 1020.88 1020.38 1019.88 1019.54 1019.55 1019.10 1018.95 1018.77 1018.32 1018.29 1017.83 1017.42
1011.70 1012.43 1013.35 1014.07 1014.93 1015.77 1016.44 1017.08 1017.63 1018.11 1018.63 1019.07 1019.54 1019.89 1020.17 1020.47 1020.78 1021.22 1021.55 1021.81 1021.91 1021.96 1022.01 1022.22 1022.31 1022.45 1022.50 1022.53 1022.28 1021.80 1021.44 1020.81 1019.97 1019.54 1019.25 1019.43 1019.17 1018.92 1018.72 1018.63 1018.22 1017.93 1017.62
1010.19 1011.25 1012.26 1013.20 1014.21 1015.29 1016.28 1016.96 1017.49 1017.99 1018.46 1018.89 1019.26 1019.67 1019.99 1020.27 1020.63 1021.10 1021.37 1021.61 1021.83 1022.07 1022.27 1022.38 1022.49 1022.69 1022.77 1022.55 1022.31 1021.89 1021.12 1020.34 1019.74 1019.31 1019.14 1019.18 1018.79 1018.39 1018.59 1018.57 1018.10 1017.83 1017.48
1009.23 1010.25 1011.49 1012.64 1013.65 1014.62 1015.77 1016.83 1017.64 1018.30 1018.69 1018.92 1019.25 1019.50 1019.70 1020.03 1020.40 1020.74 1021.03 1021.34 1021.68 1022.03 1022.23 1022.21 1022.44 1022.66 1022.77 1022.52 1022.23 1021.37 1020.33 1019.41 1018.96 1019.06 1018.78 1018.64 1018.52 1018.35 1018.08 1018.06 1017.62 1017.57 1017.33
1008.79 1009.87 1010.91 1012.08 1013.17 1014.11 1015.27 1016.43 1017.51 1017.97 1018.40 1018.76 1018.88 1019.08 1019.46 1019.95 1020.34 1020.69 1021.01 1021.31 1021.63 1021.85 1021.86 1022.01 1022.27 1022.56 1022.64 1022.47 1021.98 1021.09 1019.97 1019.04 1018.90 1018.94 1018.60 1018.27 1018.03 1018.13 1017.84 1017.77 1017.45 1017.74 1017.18
1008.02 1009.29 1010.51 1011.54 1012.58 1013.47 1014.39 1015.29 1016.22 1017.06 1018.01 1018.37 1018.71 1019.07 1019.33 1019.74 1020.00 1020.39 1020.73 1021.14 1021.38 1021.54 1021.49 1021.82 1022.18 1022.54 1022.74 1022.69 1022.87 1022.61 1021.52 1020.16 1019.33 1019.05 1018.70 1018.43 1018.09 1017.80 1017.83 1017.84 1017.61 1017.57 1017.37
1007.66 1008.56 1009.57 1010.67 1011.70 1012.59 1013.54 1014.86 1016.03 1017.19 1017.93 1018.44 1018.47 1018.69 1018.83 1019.17 1019.62 1019.89 1020.37 1020.83 1021.22 1021.13 1021.17 1021.60 1021.97 1022.38 1022.95 1023.16 1023.25 1023.60 1023.07 1022.67 1021.19 1019.43 1019.09 1018.87 1018.69 1018.36 1018.06 1017.91 1018.02 1017.78 1017.32
1006.82 1008.03 1008.98 1009.94 1010.89 1011.98 1013.01 1014.04 1014.76 1015.17 1016.05 1016.08 1016.52 1017.59 1018.43 1019.03 1019.41 1019.69 1020.10 1020.55 1020.98 1020.89 1020.75 1021.36 1021.86 1022.53 1022.92 1023.41 1023.48 1023.33 1023.35 1023.37 1022.84 1021.22 1020.03 1019.55 1019.37 1018.90 1018.77 1018.63 1018.30 1017.87 1017.41
1006.53 1007.39 1008.45 1009.55 1010.52 1011.41 1012.26 1012.95 1013.90 1014.68 1015.27 1015.75 1016.74 1017.45 1018.14 1018.83 1019.18 1019.50 1019.69 1020.04 1020.52 1020.73 1020.63 1021.33 1021.96 1022.53 1022.83 1023.12 1023.41 1023.50 1023.41 1023.15 1022.80 1022.47 1020.78 1020.28 1019.94 1019.38 1018.84 1018.50 1018.06 1017.66 1017.35
1006.78 1007.46 1008.30 1009.16 1009.86 1010.42 1011.38 1012.24 1012.98 1013.71 1014.53 1015.39 1016.20 1016.99 1017.50 1018.10 1018.58 1018.96 1019.27 1019.87 1020.19 1020.54 1020.38 1021.20 1021.86 1022.37 1022.78 1023.04 1023.37 1023.54 1023.81 1023.60 1023.06 1022.91 1021.55 1020.45 1019.81 1018.92 1018.77 1018.19 1017.83 1017.51 1016.99
Wind_Speed
3 2 6 10 9 11 13 10 8 8 11 12 12 11 13 13 14 13 13 12 10 9 10 10 11 10 9 9 9 8 8 7 6 7 9 9 8 5 1 1 1 2 4
8 5 6 9 10 9 10 15 15 13 13 13 13 11 14 12 11 12 11 12 12 12 12 13 13 14 14 12 9 8 8 8 7 7 7 8 9 8 3 3 1 2 5
9 6 5 9 9 8 8 7 8 9 10 12 13 13 12 10 10 11 11 10 10 12 13 15 14 14 14 13 12 10 8 8 8 8 10 5 5 4 4 4 2 2 4
9 6 5 8 10 10 8 8 7 7 6 8 10 11 10 7 9 10 11 11 11 11 11 11 11 11 12 12 12 12 12 11 9 8 5 5 5 5 5 7 8 9 9
9 7 6 10 12 12 11 10 11 10 8 10 11 10 10 10 10 11 11 11 11 11 11 11 11 11 11 11 11 11 10 11 11 7 5 5 4 4 6 6 6 7 9
8 7 8 12 13 13 13 12 13 12 13 13 12 11 11 11 11 10 10 11 11 12 11 12 11 12 12 11 11 10 10 11 11 6 6 7 6 8 3 3 5 6 7
8 6 6 12 13 13 13 13 13 13 13 13 12 12 11 10 10 11 11 11 12 12 11 11 12 12 12 12 12 11 11 12 7 6 6 6 6 10 5 2 2 4 6
9 7 6 8 11 13 14 14 14 14 13 12 12 11 11 11 11 11 10 11 11 10 10 12 12 13 13 13 12 12 12 12 8 6 7 6 10 14 11 5 1 2 5
9 8 6 6 7 10 11 13 14 14 13 13 13 13 12 11 11 11 10 11 12 11 12 13 13 14 15 15 16 16 14 13 7 5 7 5 10 16 13 9 7 3 5
8 9 8 7 7 6 6 10 12 13 12 12 12 11 9 10 10 10 9 11 12 11 13 14 15 16 16 16 16 18 16 13 7 6 5 6 18 16 15 15 14 8 8
7 9 9 9 8 7 6 7 11 13 13 12 10 8 6 4 5 5 7 9 11 11 12 13 14 15 15 14 15 15 12 4 6 5 4 14 18 16 15 15 15 16 14
10 9 11 10 10 9 7 7 6 6 5 5 5 5 5 5 4 5 6 9 10 10 12 13 13 13 10 4 4 9 4 5 4 5 4 18 18 18 17 16 15 16 17
10 7 11 11 9 10 7 5 3 3 4 4 6 5 5 4 4 3 3 3 3 7 3 5 5 4 6 4 4 5 5 5 3 4 8 17 18 18 17 17 16 15 15
12 15 11 10 10 8 6 7 6 5 4 4 5 6 5 3 4 4 2 3 3 2 4 4 3 4 5 6 6 6 5 4 4 3 6 13 19 19 19 18 18 17 16
14 13 14 12 11 9 9 6 6 5 5 5 5 5 5 5 5 4 3 3 3 3 4 5 5 5 6 6 5 6 7 7 7 4 3 11 17 20 19 19 19 19 18
15 15 14 14 11 10 8 7 6 5 6 5 5 5 6 5 5 4 3 4 3 3 3 4 4 4 4 5 7 7 8 7 8 8 6 6 16 19 20 19 18 18 19
13 13 16 15 12 12 10 8 7 5 6 5 5 6 7 6 6 6 4 4 2 3 4 4 4 4 4 5 5 7 7 8 7 8 7 5 6 13 16 17 19 19 19
12 16 16 15 15 12 10 6 6 5 5 5 5 5 7 6 6 5 4 4 3 3 3 3 3 3 4 4 5 7 6 7 8 7 6 6 5 5 9 16 17 19 17
18 17 18 16 15 13 8 6 6 7 5 5 5 5 7 7 6 5 4 4 4 3 2 2 2 3 3 4 5 6 7 8 6 5 6 8 6 5 4 10 13 14 16
17 18 18 14 15 14 8 6 4 4 4 5 5 5 7 5 6 6 4 5 4 3 3 2 2 1 1 4 6 8 7 8 4 4 5 5 5 6 5 5 4 4 11
14 16 18 17 16 13 9 8 6 7 5 4 5 7 7 6 6 6 4 5 5 4 4 3 1 1 2 3 4 4 4 7 4 3 4 5 5 5 6 5 3 3 4
18 17 17 17 17 14 11 9 5 6 2 3 3 5 7 7 7 6 6 5 5 4 5 4 3 2 2 4 3 3 6 6 5 11 7 5 6 5 5 7 6 7 5
18 19 19 19 19 16 14 9 5 5 4 3 5 6 6 8 8 7 7 5 5 4 5 4 4 4 1 2 5 1 3 3 9 4 10 6 6 8 7 7 8 9 10
17 17 18 18 18 14 15 14 12 12 10 8 10 7 6 8 7 7 7 6 6 3 6 4 4 3 3 1 2 0 1 2 3 6 4 7 12 5 8 9 11 7 9
16 17 16 17 17 15 17 16 12 11 8 4 5 9 8 6 7 7 7 7 6 4 6 6 4 3 3 3 2 2 1 3 5 5 9 3 9 9 8 7 7 9 11
11 13 14 16 17 16 17 16 18 16 10 9 10 10 9 8 6 7 7 6 6 5 6 5 4 4 2 1 1 2 3 3 3 3 7 11 13 8 8 11 9 7 8
Wind_Direction
137 142 120 100 104 100 98 98 103 93 93 87 79 74 74 70 65 58 49 48 50 44 43 35 36 39 40 35 26 24 21 16 12 8 351 335 321 304 250 101 69 340 347
133 113 101 112 108 107 106 104 96 92 94 95 82 76 76 63 67 67 61 44 37 42 45 48 40 33 24 25 16 11 11 9 12 358 330 323 317 315 190 109 40 357 351
122 114 103 119 116 113 90 81 109 111 89 94 90 66 57 57 52 58 53 50 38 27 23 30 32 25 17 18 15 16 14 11 4 351 329 320 306 55 92 100 70 26 350
126 122 111 114 119 119 106 90 85 99 105 81 81 76 64 72 69 64 63 55 46 41 39 37 30 25 17 8 13 18 16 12 354 339 325 322 334 1 54 45 15 16 15
125 122 128 128 124 118 115 114 119 109 115 94 84 93 89 75 71 65 58 52 48 41 36 35 26 20 17 12 7 0 359 351 338 326 318 316 308 337 8 51 34 17 359
122 122 131 134 129 126 125 124 119 116 110 108 101 97 91 86 80 67 55 45 41 36 32 29 19 15 13 8 0 1 358 348 333 325 318 316 317 294 282 43 35 18 6
131 123 132 138 136 132 128 126 124 123 120 116 113 104 99 90 79 67 60 52 44 37 33 26 21 16 12 2 354 355 353 343 336 323 319 310 304 307 294 311 85 30 1
138 135 122 129 137 140 143 141 136 131 127 124 118 113 107 96 87 76 61 54 45 37 32 26 21 15 11 9 6 359 349 332 325 309 297 295 289 297 295 280 37 355 341
141 136 137 123 127 144 149 143 138 134 131 131 130 121 112 100 86 68 56 52 41 36 33 28 25 23 21 17 17 12 351 338 337 313 313 306 323 337 327 279 222 261 305
155 155 159 155 146 144 146 140 140 138 139 137 133 127 116 92 90 68 55 48 40 39 35 29 27 29 19 17 14 8 3 1 349 341 334 332 335 332 329 326 333 313 299
179 172 165 167 163 158 146 141 138 145 143 143 142 157 126 111 110 103 78 62 58 48 41 33 30 22 15 11 9 4 3 343 353 344 335 340 343 336 330 323 321 319 315
192 189 174 174 167 162 155 149 152 156 158 162 159 138 133 123 121 107 67 66 66 54 44 35 30 23 15 358 356 359 347 344 349 336 329 337 336 331 327 322 314 309 307
191 183 185 177 170 167 156 161 163 160 164 158 151 151 138 111 93 85 73 53 50 57 53 44 26 15 10 360 353 347 346 346 332 321 326 328 326 322 319 312 309 304 298
190 193 179 177 174 174 154 163 167 160 163 161 163 148 130 115 108 110 112 104 91 58 49 36 27 4 9 356 349 335 331 322 312 310 313 316 322 320 318 314 309 304 299
199 191 188 177 176 173 161 164 163 171 162 167 156 143 137 132 130 125 116 90 70 47 45 32 19 9 1 353 341 342 338 328 319 312 295 308 320 321 317 314 312 309 304
199 193 180 184 175 165 166 167 169 166 163 158 148 145 133 136 135 127 117 90 67 51 44 38 22 16 5 344 341 332 324 314 308 306 309 315 313 315 314 315 315 316 315
200 179 182 177 169 171 171 171 169 170 154 144 147 143 137 137 135 135 122 101 84 61 53 37 18 14 1 351 333 318 313 297 295 299 306 294 305 296 301 312 312 314 318
176 178 177 177 173 168 170 162 162 158 148 146 143 143 148 142 138 131 128 126 119 87 79 55 31 0 0 347 316 308 287 278 285 295 306 285 267 289 295 298 303 310 316
181 173 173 173 168 162 156 152 151 153 151 153 147 155 155 145 141 137 138 130 124 111 90 73 43 48 350 325 309 287 279 280 273 284 269 276 267 271 260 276 283 293 301
179 173 167 163 159 156 151 137 131 137 147 150 159 162 154 151 150 146 142 145 145 139 122 87 72 336 262 285 301 294 287 289 290 288 290 301 299 293 276 275 287 303 316
164 160 164 160 167 160 163 158 159 175 170 165 171 155 155 154 159 155 153 157 162 153 145 128 146 12 352 329 330 301 299 287 298 348 307 298 323 325 328 332 3 311 319
164 164 164 167 167 171 170 170 157 155 154 150 147 160 165 165 169 165 162 170 166 151 130 124 113 51 17 32 9 328 340 331 1 329 323 318 335 350 342 325 332 317 328
166 166 167 170 173 173 168 150 106 94 84 145 187 182 185 170 172 164 168 162 179 174 145 143 129 118 111 358 41 239 331 315 336 330 332 327 338 336 333 335 316 313 305
173 168 169 170 174 173 163 170 171 186 180 202 186 177 168 171 171 164 168 173 188 182 124 130 131 129 126 250 334 12 232 176 280 316 317 318 307 321 324 305 299 305 308
165 171 170 170 175 172 177 183 181 189 188 148 158 161 168 168 171 175 173 175 175 170 133 138 133 142 158 157 189 325 286 259 240 252 295 268 304 296 296 284 291 292 292
166 167 169 171 180 178 180 183 189 187 170 161 169 174 178 177 177 179 175 165 166 167 139 144 141 133 136 165 223 250 254 276 293 294 295 304 290 285 309 290 279 271 280